User: anonymous   Login
Location: Unspecified
(0.0000°N, 0.0000°E)
Time: 17:32:49
(UTC+00:00)
Language:

COSMOS 2438 - Orbit

View from above orbital plane
View from above orbital plane
View from above satellite
View from above satellite

Ground track
Ground track

The orbit data is extracted from the following two-line orbital elements,

1 32955U 08025C   18050.49436828  .00000038  00000-0  19993-3 0  9992
2 32955  82.5007  84.4133 0022381  99.8568 260.5040 12.43302330442257
Epoch (UTC): 19 February 2018 11:51:53
Eccentricity: 0.0022381
inclination: 82.5007°
perigee height: 1475 km
apogee height: 1510 km
right ascension of ascending node: 84.4133°
argument of perigee: 99.8568°
revolutions per day: 12.43302330
mean anomaly at epoch: 260.5040°
orbit number at epoch: 44225

The dashed part of the orbit path shows where the satellite is in the earth's shadow,  

DLR